SCP
0 0 0 0 0 0 0 0 0 0 0 0 0 0 0 0 0 0 0 0 0 0 0 0 0 0 0 0 0 0 0 0 0 0 0 0 0 0 0 0 0 0 0
0 0 0 0 0 0 0 0 0 0 0 0 0 0 0 0 0 0 0 0 0 0 0 0 0 0 0 0 0 0 0 0 0 0 0 0 0 0 0 0 0 0 0
0 0 0 0 0 0 0 0 0 0 0 0 0 0 0 0 0 0 0 0 0 0 0 0 0 0 0 0 0 0 0 0 0 0 0 0 0 0 0 0 0 0 0
0 0 1 1 0 0 0 0 0 0 0 0 0 0 0 0 0 0 0 0 0 0 0 0 0 0 0 0 0 0 0 0 0 0 0 0 0 0 0 0 0 0 0
1 1 1 1 1 1 1 0 0 0 0 0 0 0 0 0 0 0 0 0 0 0 0 0 0 0 0 0 0 0 0 0 0 0 0 0 0 0 0 0 0 0 0
1 1 1 1 1 1 1 1 1 0 0 0 0 0 0 0 0 0 0 0 0 0 0 0 0 0 0 0 0 0 0 0 0 0 0 0 0 0 0 0 0 0 0
1 1 1 1 1 1 1 1 1 0 0 0 0 0 0 0 0 0 0 0 0 0 0 0 0 0 0 0 0 0 0 0 0 0 0 0 0 0 0 0 0 0 0
1 0 0 0 0 1 1 1 1 0 0 0 0 0 0 0 0 0 0 0 0 0 0 0 0 0 0 0 0 0 0 0 0 0 0 0 0 0 0 0 0 0 0
0 0 0 0 0 0 0 0 0 0 0 0 0 0 0 0 0 0 0 0 0 0 0 0 0 0 0 0 0 0 0 0 0 0 0 0 0 0 0 0 0 0 0
0 0 0 0 0 0 0 0 0 0 0 0 0 0 0 0 0 0 0 0 0 0 0 0 0 0 0 0 0 0 0 0 0 0 0 0 0 0 0 0 0 0 0
0 0 0 0 0 0 0 0 0 0 0 0 0 0 0 0 0 0 0 0 0 0 0 0 0 0 0 0 0 0 0 0 0 0 0 0 0 0 0 0 0 0 0
0 0 0 0 0 0 0 0 0 0 0 0 0 0 0 0 0 0 0 0 0 0 0 0 0 0 0 0 0 0 0 0 0 0 0 0 0 0 0 0 0 0 0
0 0 0 0 0 0 0 0 0 0 0 0 0 0 0 0 0 0 0 0 0 0 0 0 0 0 0 0 0 0 0 0 0 0 0 0 0 0 0 0 0 0 0
0 0 0 0 0 0 0 0 0 0 0 0 0 0 0 0 0 0 0 0 0 0 0 0 0 0 0 0 0 0 0 0 0 0 0 0 0 0 0 0 0 0 0
0 0 0 0 0 0 0 0 0 0 0 0 0 0 0 0 0 0 0 0 0 0 0 0 0 0 0 0 0 0 0 0 0 0 0 0 0 0 0 0 0 0 0
0 0 0 0 0 0 0 0 0 0 0 0 0 0 0 0 0 0 0 0 0 0 0 0 0 0 0 0 0 0 0 0 0 0 0 0 0 0 0 0 0 0 -0
0 0 0 0 0 0 0 0 0 0 0 0 0 0 0 0 0 0 0 0 0 0 0 0 0 0 0 0 0 0 0 0 0 0 0 0 0 0 0 0 -0 -0 -0
0 0 0 0 0 0 0 0 0 0 0 0 0 0 0 0 0 0 0 0 0 0 0 0 0 0 0 0 0 0 0 0 0 0 0 0 0 0 0 -0 -0 -0 -0
0 0 0 0 0 0 0 0 0 0 0 0 0 0 0 0 0 0 0 0 0 0 0 0 0 0 0 0 0 0 0 0 0 0 0 0 0 0 -0 -0 -0 -0 -0
0 0 0 0 0 0 0 0 0 0 0 0 0 0 0 0 0 0 0 0 0 0 0 0 0 0 0 0 0 0 0 0 0 0 0 0 0 0 0 -0 -0 0 0
0 0 0 0 0 0 0 0 0 0 0 0 0 0 0 0 0 0 0 0 0 0 0 0 0 0 0 0 0 0 0 0 0 0 0 0 0 0 -0 -0 -0 -0 -0
0 0 0 0 0 0 0 0 0 0 0 0 0 0 0 0 0 0 0 0 0 0 0 0 0 0 0 0 0 0 0 0 0 0 0 0 0 0 0 -0 -0 -0 -0
0 0 0 0 0 0 0 0 0 0 0 0 0 0 0 0 0 0 0 0 0 0 0 0 0 0 0 0 0 0 0 0 0 0 0 0 0 0 0 0 -0 -0 -0
0 0 0 0 0 0 0 0 0 0 0 0 0 0 0 0 0 0 0 0 0 0 0 0 0 0 0 0 0 0 0 0 0 0 0 0 0 0 0 0 0 -0 -0
0 0 0 0 0 0 0 0 0 0 0 0 0 0 0 0 0 0 0 0 0 0 0 0 0 0 0 0 0 0 0 0 0 0 0 0 0 0 0 0 0 0 0
0 0 0 0 0 0 0 0 0 0 0 0 0 0 0 0 0 0 0 0 0 0 0 0 0 0 0 0 0 0 0 0 0 0 0 0 0 0 0 0 0 0 0
Wind_Speed
5 4 3 3 4 3 4 4 5 6 6 7 8 8 8 8 8 6 5 12 12 12 13 13 13 13 13 13 13 14 14 15 14 13 15 18 19 20 20 19 18 17 16
5 4 4 4 4 4 4 5 6 6 5 5 7 7 7 6 6 6 5 7 11 12 13 13 13 13 14 13 13 13 14 14 13 13 13 16 18 20 21 20 20 19 17
5 5 4 4 5 4 5 4 5 4 4 5 6 6 5 6 6 6 6 5 5 10 13 14 14 13 14 14 15 14 13 13 14 14 14 15 18 20 21 22 21 20 18
6 5 4 5 5 4 4 4 4 4 4 4 4 5 5 5 7 7 6 6 5 5 8 12 13 13 14 15 16 16 14 13 14 15 15 16 18 21 22 22 22 20 18
4 4 4 4 5 4 4 4 4 4 5 5 5 5 5 6 7 7 7 7 6 6 5 8 13 14 14 16 16 16 15 14 13 13 13 15 17 21 23 23 22 21 20
2 3 3 4 4 4 4 4 5 5 5 5 6 5 4 5 5 5 7 6 5 6 6 7 6 8 14 15 15 15 15 14 13 12 13 14 15 19 23 24 23 23 23
2 3 3 4 4 5 6 7 5 6 5 4 3 3 4 5 6 6 6 5 5 6 6 7 6 5 5 12 14 14 14 14 13 12 13 13 14 17 23 25 24 25 25
4 4 5 5 5 5 7 7 6 5 5 4 4 2 3 4 3 4 4 5 5 5 7 8 7 6 5 4 7 12 12 12 13 13 12 12 13 15 21 25 25 26 26
5 5 6 6 6 6 6 7 7 8 6 5 5 5 4 4 3 3 2 3 4 5 6 6 7 7 7 5 5 8 11 11 12 13 13 13 12 13 19 25 27 28 28
5 6 7 7 7 6 7 8 8 7 7 6 4 4 4 4 3 2 3 2 3 5 6 5 6 6 6 5 6 8 9 9 11 14 15 14 13 12 16 23 27 29 29
5 6 6 6 6 6 7 7 7 7 6 5 4 3 3 2 3 3 3 3 3 3 3 5 6 6 6 4 4 5 7 8 10 13 15 15 15 13 14 22 28 31 30
4 6 7 6 5 4 4 4 5 4 4 4 4 3 3 2 3 3 3 3 3 4 4 4 5 6 4 3 4 5 5 7 9 11 13 14 14 12 15 23 28 30 29
3 6 6 5 4 4 4 3 2 1 0 1 2 2 2 2 1 2 2 2 2 3 3 3 4 3 3 3 3 3 3 4 7 8 9 8 10 14 18 24 27 28 27
3 4 5 5 5 5 4 4 3 3 2 1 1 1 0 1 1 1 2 2 2 2 3 5 3 3 2 3 3 3 1 3 4 4 4 2 9 15 19 22 23 24 24
3 4 4 4 4 4 4 4 3 3 3 2 2 1 0 0 1 2 2 2 2 2 4 4 3 2 2 2 4 2 1 1 1 3 4 7 11 15 17 17 17 18 18
3 4 4 4 4 4 4 3 2 2 2 2 1 1 0 1 1 1 1 1 2 4 5 4 3 3 3 3 4 3 3 4 4 5 7 10 12 14 14 15 15 15 14
3 4 4 4 4 4 4 3 3 3 2 1 1 0 1 1 1 2 2 1 3 4 5 4 3 3 4 4 4 3 3 3 3 6 8 11 12 13 13 13 13 13 13
3 3 3 4 4 4 4 4 4 3 2 1 2 3 4 4 5 4 3 3 3 3 4 5 3 2 4 4 4 4 3 4 4 7 9 10 11 12 12 12 12 12 12
3 3 4 5 5 5 5 5 4 4 4 4 5 5 5 5 5 4 4 4 4 4 3 3 3 2 2 2 3 3 3 2 4 7 8 9 10 11 11 11 11 11 11
5 5 5 5 5 6 6 5 5 6 6 6 6 6 5 5 4 4 4 5 5 5 4 2 2 2 1 1 2 3 2 2 2 5 6 7 9 11 11 11 12 13 13
5 5 6 6 6 5 6 5 5 6 6 6 5 5 6 8 7 4 3 5 6 5 4 3 3 2 2 1 1 2 3 2 1 2 3 4 5 5 7 11 14 15 15
5 6 6 6 6 5 7 9 7 6 6 6 6 5 6 9 9 8 7 8 7 5 5 4 3 3 4 3 1 0 2 3 2 1 3 3 4 5 6 6 11 15 16
5 5 5 5 6 7 10 10 10 7 7 6 6 6 7 9 10 7 8 9 9 10 9 4 4 4 4 5 3 2 1 2 2 1 2 2 3 4 4 5 11 13 14
4 4 4 5 5 7 9 9 10 7 6 6 5 5 6 7 8 7 7 7 7 7 7 4 2 3 3 4 3 2 1 2 2 1 1 1 1 2 3 3 8 10 11
4 4 4 4 6 6 8 8 7 4 4 4 4 5 6 6 10 10 8 8 8 8 8 8 5 4 6 7 5 3 3 2 1 1 1 1 1 1 2 3 5 9 10
4 4 4 4 5 5 9 9 5 2 3 2 4 5 9 9 10 10 7 6 8 7 8 8 6 5 5 6 6 3 1 1 0 1 1 0 1 0 2 1 3 4 4
Wind_Direction
222 217 209 199 201 209 222 228 232 239 243 245 245 247 251 243 238 235 242 245 233 229 234 238 238 243 249 250 249 248 249 251 249 243 237 229 221 211 202 199 196 192 188
208 195 194 193 201 207 216 223 227 231 242 243 245 245 245 242 237 232 225 234 231 232 239 245 245 247 253 256 254 251 250 252 252 250 245 234 222 211 202 199 197 194 188
203 195 193 200 209 209 215 226 230 230 244 245 249 252 253 251 250 244 236 228 232 238 240 243 245 245 251 258 260 260 256 254 252 251 248 239 224 210 200 198 197 195 188
203 198 200 211 215 214 217 223 222 226 240 241 245 253 253 252 253 250 244 240 233 234 239 242 242 241 246 255 259 261 261 259 256 255 252 244 228 210 199 196 196 193 185
215 203 211 219 216 220 224 229 222 215 234 243 243 247 249 251 251 249 242 242 239 235 233 241 240 240 245 252 254 257 260 262 263 262 257 250 235 213 199 196 194 189 181
206 198 223 233 226 226 234 233 235 232 229 235 248 254 253 254 249 239 241 244 246 244 237 234 234 242 244 246 247 250 256 261 262 261 259 254 244 217 201 196 192 186 180
257 238 240 242 234 230 233 231 232 240 242 229 235 274 277 254 243 239 234 233 246 255 250 239 229 226 238 242 242 245 251 258 261 262 260 254 246 222 204 197 191 184 177
312 287 263 255 250 246 247 240 232 235 240 211 191 205 279 306 284 252 234 227 238 255 257 247 233 228 231 235 241 244 251 254 256 259 261 256 245 227 208 199 190 182 174
312 290 274 264 258 247 248 243 234 231 237 235 197 175 190 227 284 307 262 234 237 247 253 254 243 239 238 236 240 246 248 248 253 258 260 257 245 230 211 200 190 178 170
312 302 288 275 263 252 247 247 240 226 221 232 227 211 201 176 181 283 303 278 253 247 248 250 256 258 249 236 233 234 245 253 257 261 262 258 248 232 215 197 187 172 168
326 328 316 300 281 264 254 249 243 227 215 213 210 203 211 211 188 197 263 298 315 283 260 250 253 256 249 229 217 224 243 260 267 268 266 258 247 232 213 190 178 170 170
331 338 335 331 319 306 287 269 251 233 221 209 203 191 183 196 197 192 228 262 285 290 283 262 257 250 233 204 201 209 247 272 282 282 277 259 236 215 190 178 171 169 171
335 334 337 342 348 351 351 355 6 344 227 189 196 192 193 207 191 180 205 247 270 288 294 290 274 249 210 179 190 199 251 288 299 301 293 258 205 181 170 168 169 169 172
314 322 332 345 357 6 10 19 29 25 29 31 74 112 148 232 222 202 206 218 283 299 290 281 289 254 212 183 187 182 247 296 315 323 319 198 163 157 156 160 165 167 171
311 329 339 351 359 7 11 16 24 24 29 28 30 58 106 253 252 242 229 201 199 275 280 266 263 264 208 184 184 172 179 211 67 64 82 112 130 138 143 148 154 161 167
309 323 333 343 348 352 353 354 0 3 29 19 340 350 331 265 259 256 260 240 211 227 250 258 250 240 210 202 187 166 164 140 119 109 106 112 120 127 134 141 149 156 162
304 314 322 333 336 337 334 330 323 323 324 313 311 67 43 38 17 9 349 297 239 220 236 262 257 245 211 198 170 158 145 136 135 133 126 125 130 136 143 150 157 162 166
304 306 327 350 353 354 351 346 334 341 346 28 61 59 37 30 25 8 354 330 299 266 237 257 269 252 223 201 175 164 158 158 153 160 151 148 149 153 160 166 174 180 184
25 30 45 46 36 24 15 7 13 38 57 62 59 53 38 32 22 2 357 347 326 314 271 252 266 261 245 179 156 158 166 151 166 169 171 171 170 172 177 183 190 198 202
72 65 60 54 41 28 20 17 35 55 62 62 59 51 36 25 11 356 356 351 343 340 332 309 288 292 282 220 153 153 154 153 166 166 174 179 186 189 192 197 204 210 214
84 76 65 45 30 29 18 27 45 59 61 59 50 40 32 21 10 0 355 351 353 352 347 349 348 352 356 5 203 167 154 136 117 140 151 172 177 188 199 211 215 218 218
89 81 71 57 42 28 32 64 78 66 59 55 41 19 21 22 12 17 15 14 14 9 356 353 352 359 355 346 341 140 138 138 157 145 144 174 174 190 200 204 215 217 220
100 89 77 63 48 26 46 72 81 79 70 62 52 39 38 29 27 27 25 19 12 14 20 10 3 353 343 345 350 27 74 119 145 155 137 176 183 192 192 201 210 214 218
106 100 83 66 54 29 43 78 83 72 67 56 49 46 49 34 25 30 32 19 5 357 351 359 352 329 331 332 347 4 53 74 67 30 70 184 200 201 186 194 199 196 201
101 96 87 73 61 30 40 78 96 85 71 47 32 33 39 37 22 35 36 18 9 360 355 351 331 325 339 355 6 33 41 60 43 338 354 177 228 243 211 207 203 197 186
110 102 83 68 67 48 40 56 75 87 81 36 15 19 28 30 28 36 39 26 11 343 348 6 8 347 340 343 358 24 43 77 82 289 270 194 237 343 285 238 189 191 192